Wind_Speed
33 34 36 37 39 40 39 39 38 38 40 40 40 37 35 34 35 34 32 30 30 30 29 30 28 25 24 22 21 20 20 19 18 18 19 19 20 19 19 18 19 20 21 21
29 33 36 37 39 40 41 42 42 43 44 44 44 42 40 37 37 37 36 33 31 31 32 33 29 27 26 23 21 21 21 20 20 19 19 19 20 19 19 20 20 21 22 22
25 29 33 34 35 37 40 43 44 44 44 45 45 44 41 39 39 37 36 34 32 31 33 33 30 29 27 24 22 21 21 21 21 20 20 20 20 20 20 20 21 21 22 23
22 25 29 32 34 36 38 39 41 42 43 43 42 44 40 38 36 34 33 33 32 32 33 32 30 28 27 24 22 22 22 22 21 20 20 20 20 20 21 21 22 23 24 25
20 24 27 29 31 34 36 38 39 39 39 39 37 39 35 34 33 31 30 30 32 32 31 31 29 27 25 23 23 22 21 21 20 20 20 20 20 21 21 22 23 24 25 26
17 21 25 27 29 31 32 34 35 36 36 36 33 34 31 29 28 28 28 28 29 29 29 30 28 26 24 23 22 21 20 20 20 20 20 21 21 21 22 23 24 25 26 26
19 20 23 28 28 28 28 28 29 29 28 27 26 26 24 24 26 25 25 26 26 26 26 27 26 25 24 22 22 22 21 21 21 20 20 21 22 22 23 24 24 25 25 26
23 21 21 28 29 29 26 25 24 25 23 21 20 17 16 18 20 20 21 21 21 22 23 23 23 22 21 20 20 20 20 20 21 21 21 21 22 22 23 24 24 24 24 24
28 26 25 28 29 29 26 24 23 24 25 24 21 18 16 15 14 15 16 19 20 20 21 21 21 20 19 19 19 20 20 20 20 20 21 22 22 22 23 23 23 23 23 22
33 33 29 29 29 30 29 25 22 22 23 22 18 17 17 16 12 12 14 16 17 17 18 20 20 20 20 20 20 20 19 19 19 20 21 22 22 23 23 23 23 22 22 21
38 38 33 31 29 30 27 25 24 25 26 23 20 21 21 19 17 15 14 13 15 18 18 19 20 19 17 18 19 20 20 20 20 21 21 22 22 23 23 23 22 22 21 20
41 40 35 30 27 27 27 25 23 25 24 24 22 21 23 20 17 15 14 14 16 17 16 17 19 17 17 18 20 20 20 20 21 22 22 22 22 22 21 21 21 21 20 20
42 38 33 26 22 24 25 25 25 25 24 24 24 24 23 20 19 15 15 16 18 19 19 20 20 19 18 19 20 20 20 21 21 21 21 22 22 22 21 20 20 20 20 20
38 32 26 21 18 19 20 21 23 24 24 24 22 22 21 18 16 16 15 16 18 20 21 21 20 21 22 22 21 21 22 22 22 22 23 23 22 22 21 20 19 20 20 21
32 26 20 15 13 11 10 12 15 17 18 19 19 16 14 12 11 11 11 13 15 18 19 20 21 22 22 21 21 21 22 23 24 24 24 23 22 21 21 20 20 21 22 22
28 21 14 7 6 4 3 6 7 10 12 12 12 10 9 9 9 10 11 13 14 16 17 18 19 21 22 22 22 22 23 24 24 24 23 22 22 22 21 22 22 22 23 23
26 18 9 3 1 1 3 3 5 7 9 9 9 8 7 8 9 9 10 11 12 14 15 16 17 19 20 20 21 21 21 22 22 21 22 22 22 22 22 23 24 24 24 24
24 16 7 2 2 1 3 4 6 7 7 6 6 6 6 6 7 7 8 8 9 10 10 12 13 14 16 17 17 18 18 18 19 20 21 21 22 23 23 24 25 25 24 24
21 13 6 1 0 1 2 3 5 5 5 4 4 4 4 5 5 5 5 5 5 5 6 7 9 11 12 14 15 16 17 18 20 21 21 22 22 23 23 24 24 24 24 24
20 12 6 3 2 3 2 0 3 4 3 3 3 2 3 5 5 5 3 3 3 3 3 5 7 9 11 13 15 16 17 18 19 20 21 22 22 23 23 23 23 23 23 23
21 13 7 4 5 3 3 2 2 4 4 4 4 4 4 4 3 2 0 1 1 2 4 6 8 10 12 13 15 16 17 18 19 20 21 22 22 21 21 22 22 23 23 23
21 14 9 5 5 4 4 3 2 2 4 4 5 4 3 2 1 1 1 1 2 4 6 8 10 11 13 14 15 16 17 18 19 20 20 19 19 19 20 20 21 22 22 22
22 16 11 6 4 4 3 3 3 4 4 5 6 5 3 1 1 1 1 2 4 6 8 10 11 12 13 14 15 16 17 18 18 18 18 18 18 18 18 18 19 20 21 21
23 18 12 8 5 5 4 4 5 6 7 7 6 5 3 1 1 1 2 4 6 8 10 11 12 13 14 15 16 16 17 17 17 17 17 16 16 16 16 17 17 18 18 19
25 19 13 9 7 6 6 7 7 7 6 7 6 5 3 2 1 1 3 5 7 9 11 12 13 14 15 15 16 16 16 16 17 16 16 15 15 15 15 16 16 16 16 17
28 22 16 12 9 7 7 8 8 8 7 7 6 5 5 4 3 3 4 6 8 10 12 13 14 15 15 15 16 16 16 16 16 16 15 15 15 15 14 14 14 14 14 14
Wind_Direction
252 254 255 255 257 259 261 262 264 266 266 265 267 269 271 272 272 275 276 277 276 275 276 275 276 277 277 278 279 282 285 287 289 291 290 291 292 293 291 289 288 289 290 291
262 260 260 262 263 264 264 265 265 265 266 269 269 271 272 272 271 272 272 272 273 270 268 268 269 270 271 273 275 279 282 286 289 290 290 290 291 291 289 288 285 283 283 284
274 270 267 266 267 268 267 267 266 266 267 269 271 272 272 270 269 269 268 268 270 269 266 265 265 264 266 268 271 275 279 284 287 289 289 289 289 290 289 288 287 284 280 283
277 275 274 272 270 269 269 270 269 268 268 268 271 272 272 271 268 266 265 263 264 264 263 262 261 260 262 264 267 272 278 283 286 288 289 289 289 289 289 288 286 284 281 279
286 283 281 278 275 273 272 271 270 270 270 271 273 275 275 274 269 265 261 261 261 259 259 260 260 259 260 263 267 271 277 283 286 288 288 288 289 289 290 289 287 285 282 280
302 295 291 287 282 279 276 275 273 272 273 273 273 275 276 277 276 271 267 265 261 257 256 256 256 256 257 261 266 271 277 283 286 287 287 288 289 289 289 289 287 285 282 279
310 302 297 295 291 287 283 280 278 275 274 275 273 273 276 274 272 270 267 265 261 256 254 253 253 254 255 259 266 273 277 282 285 287 287 287 287 288 289 288 287 285 282 279
310 302 286 283 286 285 282 279 276 274 272 270 268 271 267 268 271 272 272 267 263 261 259 256 255 254 256 261 268 273 278 282 285 285 284 285 286 287 288 287 286 285 283 281
311 302 288 280 277 277 275 274 271 266 264 264 270 280 279 268 267 270 271 269 263 261 259 258 258 257 258 265 271 276 280 282 283 284 286 286 287 287 287 286 286 285 284 282
311 303 296 286 274 269 269 269 264 259 260 259 255 252 246 251 239 252 260 259 260 259 260 259 256 255 261 269 274 277 281 283 284 285 285 287 288 289 289 288 287 285 284 281
310 305 300 288 279 270 263 255 249 249 250 252 250 243 239 234 229 221 227 241 253 255 260 258 255 257 259 271 276 281 282 283 284 286 286 289 292 292 292 290 288 286 284 281
313 308 302 292 275 262 255 254 248 245 246 244 247 248 247 235 228 216 228 243 250 248 252 260 261 256 267 274 278 281 282 284 286 286 287 291 295 295 294 292 290 286 283 280
317 311 303 292 270 256 247 241 242 244 248 250 250 251 250 245 242 247 251 253 255 258 259 260 263 269 272 278 280 284 284 286 287 287 291 296 297 296 295 293 290 286 283 280
321 315 307 297 277 260 250 239 241 244 247 250 252 253 254 252 251 256 254 252 255 256 257 259 263 269 274 278 282 285 285 287 289 289 293 296 296 294 293 292 290 288 285 282
329 321 309 293 275 265 259 249 241 241 243 246 251 255 262 269 268 265 260 260 258 257 259 259 261 267 271 274 277 281 285 287 288 290 292 291 291 290 290 290 289 289 287 285
341 335 327 313 275 252 257 253 242 234 235 239 247 251 265 271 274 274 273 269 265 264 264 263 264 266 270 274 277 279 282 285 288 290 291 292 290 289 288 288 288 288 287 285
353 351 352 8 96 153 216 213 198 216 230 227 232 246 258 268 271 276 279 274 269 268 265 265 265 266 270 274 277 280 281 283 286 289 292 290 290 292 292 290 288 287 286 284
359 0 6 62 120 298 190 177 176 182 191 208 224 239 252 272 281 287 285 281 275 270 267 266 266 270 276 280 284 285 285 285 289 293 293 293 291 290 290 289 287 286 285 283
359 2 13 60 285 288 202 175 168 173 177 195 208 226 255 276 287 284 286 290 288 282 281 277 276 279 282 286 289 291 293 293 293 293 293 293 291 290 290 289 287 286 284 282
0 359 352 331 310 306 274 228 166 182 189 210 222 248 288 287 284 280 282 296 305 285 294 299 297 296 298 300 301 301 301 299 297 296 295 294 293 292 291 289 288 287 285 282
4 360 349 319 316 324 284 291 184 218 234 233 248 286 288 284 302 296 262 47 1 333 324 319 316 313 311 309 308 306 304 302 300 298 296 295 294 292 291 290 289 287 285 282
5 3 355 323 307 319 298 266 246 261 247 242 256 271 282 276 318 51 75 30 349 334 328 324 321 319 318 316 313 311 309 307 304 302 300 298 296 294 293 292 291 289 286 282
7 3 0 352 322 320 298 257 264 264 283 278 264 260 260 291 7 78 37 351 334 328 325 324 323 322 320 319 318 316 314 312 310 307 305 302 300 299 297 297 296 293 289 285
8 7 2 355 337 318 298 284 283 278 283 278 263 257 260 262 135 54 336 328 326 324 324 324 323 322 320 320 320 318 317 316 315 313 310 308 306 304 304 304 303 300 295 291
8 7 5 357 339 319 299 287 281 286 283 268 252 249 247 230 207 294 317 321 323 325 325 325 326 325 323 322 322 321 320 319 320 319 316 313 312 311 311 312 312 309 305 302
9 7 4 0 347 316 295 286 277 278 279 260 247 248 243 240 247 276 300 313 321 324 326 327 328 327 326 325 325 325 324 324 325 325 322 319 317 317 316 317 319 319 318 316
Height
5847 5850 5850 5849 5849 5850 5851 5851 5852 5852 5850 5851 5851 5852 5853 5854 5854 5853 5854 5855 5855 5854 5854 5852 5852 5854 5853 5853 5853 5852 5851 5851 5850 5850 5849 5848 5848 5847 5847 5847 5846 5845 5845 5844
5843 5843 5842 5843 5844 5843 5844 5843 5844 5844 5843 5843 5843 5844 5846 5847 5847 5847 5847 5847 5848 5848 5847 5845 5847 5848 5848 5848 5848 5847 5846 5846 5846 5845 5845 5844 5843 5843 5843 5842 5842 5841 5841 5840
5837 5837 5836 5836 5836 5835 5835 5834 5834 5835 5835 5834 5834 5835 5837 5838 5838 5838 5839 5840 5840 5840 5840 5839 5841 5841 5842 5843 5843 5842 5842 5841 5841 5841 5840 5839 5839 5838 5838 5837 5837 5837 5836 5835
5831 5830 5828 5828 5828 5827 5826 5825 5825 5825 5826 5826 5826 5825 5830 5828 5828 5829 5830 5831 5831 5833 5832 5832 5834 5835 5835 5836 5837 5837 5837 5836 5836 5836 5835 5834 5834 5833 5832 5832 5831 5831 5831 5831
5825 5824 5822 5820 5820 5818 5817 5817 5817 5817 5816 5817 5818 5817 5821 5820 5820 5821 5821 5822 5823 5825 5825 5826 5827 5828 5829 5830 5831 5831 5832 5831 5831 5830 5830 5829 5828 5827 5827 5826 5825 5824 5824 5824
5820 5818 5816 5814 5812 5811 5809 5809 5808 5808 5808 5810 5810 5810 5812 5812 5812 5813 5813 5814 5815 5816 5817 5819 5821 5822 5823 5824 5825 5826 5826 5826 5826 5825 5825 5824 5823 5822 5821 5820 5819 5818 5817 5817
5816 5814 5810 5806 5804 5804 5803 5803 5802 5802 5802 5803 5803 5803 5806 5806 5806 5807 5807 5808 5808 5809 5811 5812 5814 5815 5816 5818 5819 5820 5820 5820 5820 5820 5819 5818 5817 5816 5815 5814 5812 5811 5810 5810
5811 5809 5806 5801 5798 5797 5796 5796 5797 5797 5797 5797 5796 5797 5799 5799 5800 5801 5802 5802 5803 5804 5805 5806 5808 5809 5810 5812 5813 5814 5814 5815 5814 5814 5813 5813 5811 5810 5809 5808 5806 5805 5804 5803
5805 5802 5799 5795 5792 5790 5789 5789 5790 5790 5790 5790 5792 5793 5794 5794 5794 5795 5797 5798 5799 5800 5801 5802 5803 5803 5805 5807 5808 5808 5809 5809 5808 5808 5807 5806 5805 5804 5803 5802 5800 5799 5798 5797
5797 5792 5791 5788 5784 5783 5782 5782 5784 5783 5784 5785 5788 5789 5787 5788 5788 5790 5790 5791 5793 5795 5796 5796 5797 5798 5799 5801 5802 5802 5803 5803 5803 5802 5801 5800 5799 5798 5797 5795 5794 5793 5792 5791
5788 5782 5780 5777 5775 5773 5773 5773 5774 5776 5777 5779 5781 5784 5781 5782 5782 5783 5784 5786 5789 5790 5790 5791 5791 5791 5792 5795 5796 5797 5797 5797 5797 5796 5796 5794 5793 5792 5790 5789 5788 5787 5786 5786
5777 5770 5766 5765 5764 5762 5763 5764 5765 5768 5770 5772 5775 5780 5775 5775 5775 5776 5779 5783 5785 5786 5786 5786 5785 5785 5787 5790 5791 5791 5792 5792 5791 5790 5790 5789 5787 5786 5785 5784 5782 5782 5781 5781
5766 5759 5754 5753 5754 5753 5755 5756 5758 5761 5764 5767 5769 5773 5770 5770 5772 5773 5777 5779 5781 5782 5783 5783 5784 5784 5784 5785 5786 5786 5786 5786 5785 5784 5783 5783 5782 5781 5779 5778 5777 5776 5776 5775
5756 5749 5745 5743 5743 5744 5746 5749 5753 5756 5759 5761 5763 5765 5766 5767 5768 5771 5773 5775 5777 5778 5779 5780 5780 5781 5781 5781 5781 5782 5781 5781 5778 5777 5777 5777 5776 5775 5774 5773 5772 5771 5770 5770
5749 5743 5739 5737 5738 5740 5742 5746 5749 5752 5755 5758 5759 5760 5761 5763 5765 5768 5769 5771 5772 5774 5774 5775 5776 5777 5777 5778 5777 5777 5776 5775 5774 5773 5772 5771 5771 5770 5769 5768 5767 5766 5765 5764
5744 5739 5736 5735 5736 5738 5741 5743 5746 5749 5752 5754 5756 5757 5759 5761 5764 5765 5766 5767 5768 5769 5769 5770 5771 5772 5772 5772 5772 5772 5771 5770 5769 5768 5766 5765 5764 5764 5763 5762 5761 5761 5760 5759
5743 5738 5736 5736 5736 5738 5740 5742 5745 5747 5749 5752 5755 5757 5759 5760 5762 5763 5763 5764 5764 5764 5765 5766 5767 5767 5767 5767 5767 5766 5766 5765 5764 5762 5761 5760 5759 5758 5757 5756 5755 5754 5753 5753
5744 5740 5738 5737 5739 5740 5742 5741 5744 5746 5748 5751 5753 5756 5757 5758 5759 5760 5760 5760 5761 5761 5761 5762 5762 5763 5763 5762 5762 5762 5761 5760 5759 5758 5757 5755 5754 5752 5751 5750 5748 5747 5747 5746
5745 5741 5739 5739 5739 5740 5741 5741 5743 5745 5748 5751 5753 5755 5756 5757 5757 5758 5758 5758 5758 5758 5759 5759 5760 5760 5760 5760 5759 5758 5757 5756 5755 5753 5751 5750 5748 5746 5745 5743 5742 5740 5739 5739
5747 5743 5742 5741 5741 5741 5743 5743 5744 5748 5749 5751 5753 5754 5755 5756 5757 5757 5757 5757 5757 5757 5758 5758 5758 5758 5757 5757 5755 5754 5753 5752 5750 5748 5746 5744 5742 5740 5739 5737 5735 5734 5733 5732
5749 5745 5743 5743 5743 5743 5744 5745 5747 5750 5751 5752 5753 5754 5755 5755 5756 5757 5756 5757 5757 5757 5757 5757 5756 5755 5754 5753 5752 5750 5748 5747 5745 5743 5741 5739 5737 5735 5733 5731 5729 5728 5726 5725
5750 5747 5745 5744 5745 5748 5746 5747 5749 5750 5751 5752 5753 5754 5755 5755 5756 5756 5756 5757 5757 5757 5756 5755 5754 5753 5752 5750 5748 5746 5744 5742 5740 5738 5735 5733 5731 5729 5727 5725 5723 5721 5719 5718
5752 5749 5746 5747 5748 5747 5747 5748 5749 5750 5751 5753 5754 5754 5755 5756 5756 5756 5757 5757 5757 5756 5755 5754 5753 5751 5749 5747 5745 5742 5740 5738 5736 5733 5731 5729 5726 5724 5722 5720 5718 5715 5713 5711
5754 5750 5749 5748 5748 5748 5749 5749 5750 5751 5752 5753 5754 5755 5755 5756 5756 5757 5757 5757 5756 5756 5754 5753 5751 5749 5747 5744 5742 5739 5737 5734 5732 5729 5727 5724 5722 5720 5717 5715 5712 5710 5707 5705
5757 5753 5751 5750 5749 5749 5749 5750 5750 5751 5752 5753 5754 5755 5755 5756 5756 5757 5757 5756 5756 5755 5753 5751 5749 5747 5744 5742 5739 5736 5734 5731 5729 5726 5723 5721 5718 5716 5713 5710 5708 5705 5702 5699
5759 5756 5753 5751 5749 5749 5749 5749 5750 5751 5751 5752 5753 5754 5755 5756 5756 5756 5756 5756 5755 5754 5752 5750 5748 5745 5742 5740 5737 5734 5731 5729 5726 5723 5720 5717 5715 5712 5710 5707 5704 5701 5698 5695